sat.trackr.live / text

‹ back to catalog

STARLINK-31854

NORAD 59671 · 2024-084T

PAYLOAD ACTIVE UNKNOWN

§ Identity

Operator
Country
US
Launch date
2024-05-06
Launch site
AFETR
Launch vehicle
Mass (kg)
RCS (m²)

Purposes: comms

External: N2YO · Heavens-Above · Gunter

§ Orbital elements

Epoch: 2026-05-25T03:36:29.426976Z

Period
94.27 min
Inclination
43.0057°
Eccentricity
0.0003491
Mean motion
15.27573178 rev/d
Perigee alt
480.7 km
Apogee alt
485.5 km
Semi-major
6,861.2 km
B*
6.9686e-5
RAAN
296.9651°
Arg perigee
281.4058°
Mean anomaly
78.6402°
Rev number
11,642

§ Raw data

STARLINK-318541 59671U 24084T   26145.15034059  .00001655  00000+0  69686-4 0  99962 59671  43.0057 296.9651 0003491 281.4058  78.6402 15.27573178116429

JSON: /api/v1/satellites/59671 · /tle

For live sub-satellite position, see the globe view (requires WebGL).

§ Visibility from observer

Set your observer location to see the next 7 days of passes ≥ 10°. The values pass through the URL so the page stays shareable.

No JS? Fill the form by hand. The geolocation button needs JavaScript.